Home   Weather   Neunkirchen (Saar)   Past weeks

Flag for Germany Past Weather in Neunkirchen (Saar), Saarland, Germany — Yesterday and Last 2 Weeks

Now
72 °F

Passing clouds.


Feels Like: 77 °F
Forecast: 45 / 70 °F
Wind: 3 mph from North

Location: Saarbruecken / Ensheim

Current Time: Sep 27, 2016 at 5:47:16 PM

Latest Report: Sep 27, 2016 at 5:20 PM


Visibility: N/A

Pressure: 30.30 "Hg

Humidity: 47%

Dew Point: 50 °F

Location of Neunkirchen (Saar)Location

Past Weather in Neunkirchen (Saar) — Graph

°F

Neunkirchen (Saar) Temperature Yesterday

Maximum temperature yesterday: 64 °F (at 1:50 PM)
Minimum temperature yesterday: 55 °F (at 2:20 AM)
Average temperature yesterday: 59 °F

High & Low Weather Summary for the Past Weeks

 TemperatureHumidityPressure
High88 °F (Sep 12, 4:20 PM)100% (Sep 16, 3:50 AM)30.33 "Hg (Sep 16, 3:50 AM)
Low46 °F (Sep 22, 5:50 AM)27% (Sep 14, 3:50 PM)29.80 "Hg (Sep 15, 3:20 AM)
Average61 °F76%30.07 "Hg
* Reported Sep 12 4:20 PM — Sep 27 4:20 PM, Neunkirchen (Saar), Weather by CustomWeather, © 2016

Note: Actual official high and low records may vary slightly from our data, if they occured in-between our weather recording intervals... More about our weather records

Advertising

Neunkirchen (Saar) Weather History for the Previous 24 Hours

Scroll right to see more
 ConditionsComfort  
Time TempWeatherWind HumidityBarometerVisibility
4:20 PM
Tue, Sep 27
72 °FPassing clouds.6 mph47%30.30 "HgN/A
3:50 PM72 °FPassing clouds.5 mph53%30.30 "HgN/A
3:20 PM72 °FPassing clouds.5 mph50%30.30 "HgN/A
2:50 PM72 °FPassing clouds.5 mph50%30.30 "HgN/A
2:20 PM68 °FScattered clouds.5 mph56%30.30 "HgN/A
1:50 PM68 °FScattered clouds.5 mph56%30.30 "HgN/A
1:20 PM66 °FScattered clouds.5 mph64%30.33 "HgN/A
12:50 PM66 °FScattered clouds.6 mph68%30.30 "HgN/A
12:20 PM64 °FPassing clouds.3 mph68%30.30 "HgN/A
11:50 AM64 °FPassing clouds.5 mph68%30.30 "HgN/A
11:20 AM64 °FPassing clouds.7 mph68%30.30 "HgN/A
10:50 AM63 °FPassing clouds.6 mph73%30.30 "HgN/A
10:20 AM61 °FPassing clouds.2 mph77%30.30 "HgN/A
9:50 AM57 °FPassing clouds.2 mph82%30.30 "HgN/A
9:20 AM55 °FScattered clouds.3 mph88%30.30 "HgN/A
8:50 AM54 °FScattered clouds.1 mph94%30.27 "HgN/A
8:20 AM55 °FPassing clouds.2 mph88%30.27 "HgN/A
7:50 AM54 °FScattered clouds.3 mph94%30.27 "HgN/A
7:20 AM54 °FPassing clouds.3 mph94%30.24 "HgN/A
6:50 AM54 °FPassing clouds.1 mph88%30.24 "HgN/A
6:20 AM54 °FPassing clouds.2 mph88%30.24 "HgN/A
5:50 AM54 °FPassing clouds.3 mph88%30.24 "HgN/A
5:20 AM55 °FPassing clouds.5 mph82%30.21 "HgN/A
4:50 AM57 °FClear.2 mph82%30.21 "Hg10 mi
4:20 AM57 °FPassing clouds.2 mph88%30.21 "HgN/A
3:50 AM57 °FPassing clouds.2 mph88%30.21 "HgN/A
3:20 AM55 °FPassing clouds.3 mph94%30.21 "HgN/A
2:50 AM55 °FPartly cloudy.2 mph94%30.21 "HgN/A
2:20 AM57 °FPassing clouds.3 mph88%30.21 "HgN/A
1:50 AM57 °FPassing clouds.5 mph88%30.21 "HgN/A
1:20 AM57 °FPassing clouds.3 mph88%30.21 "Hg4 mi
12:50 AM57 °FPassing clouds.3 mph88%30.21 "HgN/A
12:20 AM57 °FClear.1 mph88%30.21 "Hg10 mi
11:50 PM
Mon, Sep 26
57 °FPassing clouds.2 mph88%30.21 "HgN/A
11:20 PM57 °FPartly cloudy.3 mph88%30.21 "HgN/A
10:50 PM59 °FPartly cloudy.2 mph88%30.21 "HgN/A
10:20 PM59 °FPassing clouds.1 mph88%30.21 "HgN/A
9:50 PM59 °FPassing clouds.5 mph88%30.21 "HgN/A
9:20 PM59 °FPassing clouds.1 mph88%30.21 "HgN/A
8:50 PM61 °FPassing clouds.5 mph83%30.21 "HgN/A
8:20 PM61 °FPassing clouds.1 mph83%30.21 "HgN/A
7:50 PM61 °FPassing clouds.1 mph83%30.18 "HgN/A
7:20 PM63 °FPassing clouds.No wind73%30.18 "HgN/A
6:50 PM63 °FBroken clouds.No wind73%30.18 "HgN/A
6:20 PM64 °FBroken clouds.2 mph68%30.18 "HgN/A
5:50 PM64 °FBroken clouds.2 mph68%30.18 "HgN/A
5:20 PM64 °FBroken clouds.3 mph68%30.18 "HgN/A
Weather by CustomWeather, © 2016

See weather overviewHow to use our weather pages